Temperature
25 25 24 23 22 21 21 20 20 20 20 19 19 19 19 19 19 19 19 19 19 18 18 18 18 18 18 18 18 18 18 18 18 18 18 18 19 18 18 18 18 18 18
26 25 24 23 22 21 21 20 20 20 20 20 19 19 19 19 19 19 19 19 19 19 18 18 18 18 18 18 18 18 18 18 18 18 18 18 18 19 19 18 18 18 18
26 25 24 23 22 22 21 21 20 20 20 19 19 19 19 19 19 19 19 19 19 19 18 18 18 18 18 18 18 18 18 18 18 18 18 18 18 18 19 18 18 18 18
27 25 24 23 23 22 21 21 20 20 20 19 19 19 19 19 19 19 19 19 19 18 18 18 18 18 18 18 18 18 18 18 18 18 18 18 18 18 18 18 18 18 17
27 26 25 23 23 22 21 21 20 20 20 20 19 19 19 19 19 19 19 19 18 18 18 18 18 18 18 18 18 18 18 18 18 18 18 18 18 18 17 17 17 17 17
27 26 25 24 23 22 21 21 20 20 20 20 20 19 19 19 19 19 19 18 18 18 18 18 18 18 18 18 18 18 18 18 18 18 17 17 17 17 17 17 17 17 17
27 26 25 24 23 22 22 21 20 20 20 20 20 19 19 19 19 19 18 18 18 18 18 18 18 18 18 18 18 18 17 17 17 17 17 17 17 17 17 17 17 16 16
27 26 25 24 23 22 22 21 20 20 20 20 20 19 19 19 19 18 18 18 18 18 18 18 18 17 17 17 17 17 17 17 17 17 17 17 17 17 17 16 16 16 16
28 26 25 24 23 22 22 21 20 20 20 20 19 19 19 19 19 18 18 18 18 18 18 17 17 17 17 17 17 17 17 17 16 16 17 16 16 16 16 16 16 16 15
28 26 25 24 23 22 22 21 20 20 20 20 19 19 19 19 19 18 18 18 18 17 17 17 17 17 17 17 17 16 16 16 16 16 16 16 16 16 16 16 16 16 16
28 26 25 24 24 22 22 21 20 20 20 19 19 19 18 18 18 18 18 18 17 17 17 17 17 16 16 16 16 16 16 16 16 16 16 16 15 15 15 15 15 15 15
28 26 25 24 24 23 22 21 20 20 20 20 19 19 18 18 18 18 18 17 17 17 17 16 16 16 16 16 16 16 16 16 16 15 15 15 15 15 15 15 15 15 15
27 26 25 24 23 23 22 21 20 20 20 20 19 19 18 18 18 18 17 17 17 16 16 16 16 16 16 16 16 15 15 15 15 15 15 15 15 15 15 15 14 14 14
26 26 25 24 23 22 22 21 20 20 20 19 19 18 18 18 18 17 17 17 16 16 16 16 16 16 16 15 15 15 15 15 15 14 14 14 14 14 14 14 14 14 14
26 25 24 23 23 22 21 21 20 20 19 19 19 18 18 18 17 17 17 16 16 16 16 16 16 15 15 15 15 15 15 14 14 14 14 14 14 14 14 14 14 14 13
25 25 24 23 22 22 21 21 20 20 19 19 18 18 18 17 17 17 16 16 15 15 15 15 15 15 15 15 15 14 14 14 14 14 13 13 13 13 13 13 13 13 13
25 24 23 23 22 22 21 20 20 19 19 18 18 18 17 17 16 16 16 16 15 15 15 15 15 15 15 15 14 14 14 14 13 13 13 12 13 13 13 13 13 13 12
24 23 23 22 22 21 21 20 20 19 19 18 18 17 17 17 16 16 16 15 15 15 15 15 15 15 15 14 14 14 13 13 13 13 13 13 13 12 12 12 12 12 12
24 23 23 22 21 21 20 20 19 19 18 18 18 17 17 17 16 16 16 15 15 14 14 15 14 14 14 14 13 13 13 13 12 12 12 12 12 12 12 12 12 12 11
23 23 22 22 21 20 20 19 19 19 18 18 17 17 17 16 16 16 16 15 15 14 14 14 14 14 14 13 13 13 12 12 12 12 12 12 12 12 12 12 11 11 11
23 22 22 21 21 20 20 19 19 18 18 18 17 17 17 16 16 16 15 15 14 14 14 14 14 14 13 13 13 13 12 12 12 12 12 12 12 12 11 11 11 11 11
22 21 21 21 20 20 19 19 18 18 18 17 17 17 16 16 15 15 15 14 14 14 13 13 13 13 13 13 13 12 12 12 12 12 11 11 11 11 11 11 11 11 11
21 21 20 20 19 19 19 19 18 18 18 17 17 16 16 15 15 15 15 14 14 13 13 13 13 12 13 12 12 12 12 12 12 11 11 11 11 11 11 11 11 11 11
20 20 19 19 19 18 18 18 18 18 17 17 16 16 15 15 15 15 14 14 14 13 13 13 12 12 12 12 12 11 11 11 11 11 11 11 11 11 11 11 11 11 11
19 19 19 19 19 18 18 18 18 17 17 17 16 16 15 15 15 15 14 14 14 13 13 13 13 12 12 12 12 11 11 11 11 11 11 11 11 11 11 11 11 10 10
19 19 18 18 18 18 17 17 17 17 17 16 16 15 15 15 15 14 14 14 13 13 13 13 13 12 12 12 11 11 11 11 11 11 11 11 11 11 11 11 10 10 10
Wind_Speed
12 11 11 10 10 8 7 6 5 5 3 2 2 2 3 2 2 2 3 4 3 2 3 2 1 2 2 2 2 1 2 3 3 1 1 2 2 3 3 3 3 4 7
13 12 10 10 10 9 7 6 6 6 5 3 2 2 2 2 2 1 2 3 2 3 3 2 2 1 1 1 2 2 2 3 1 1 1 1 2 2 3 2 3 3 3
14 13 11 10 10 9 8 7 6 6 5 4 3 2 1 1 0 2 2 2 2 2 2 1 1 1 1 1 2 2 3 2 2 1 1 1 2 1 2 2 2 2 2
14 14 13 11 10 10 9 7 6 5 4 3 3 3 3 2 2 1 1 2 3 3 2 2 1 1 1 1 2 2 2 2 2 2 2 3 2 1 1 2 1 1 1
14 14 13 11 10 10 9 8 7 5 4 3 3 3 2 2 1 1 2 2 2 2 1 1 0 0 1 1 2 2 2 2 2 2 1 2 2 3 2 2 1 1 1
14 13 13 11 10 9 9 10 8 6 5 4 3 2 2 1 0 0 1 1 1 1 1 1 0 1 1 1 2 2 2 2 2 2 2 2 2 2 2 2 2 1 1
13 14 13 13 10 10 9 9 9 7 5 4 3 2 2 2 1 1 1 1 0 0 1 1 0 1 1 1 1 1 1 1 1 1 2 2 2 1 1 2 2 1 1
13 14 14 13 11 10 10 9 9 7 6 4 3 1 2 2 1 2 1 0 0 1 2 1 1 2 2 2 1 1 1 2 2 2 2 2 2 2 1 1 1 1 0
14 15 15 14 12 11 10 9 9 7 6 5 4 2 1 0 0 0 0 1 1 1 2 2 2 2 2 2 3 3 3 2 2 2 3 2 2 2 1 0 1 1 1
15 14 13 13 12 11 10 10 9 7 6 5 4 3 2 2 2 1 2 2 3 3 3 3 3 3 3 3 3 3 3 3 3 2 3 2 2 2 1 1 0 1 2
15 14 14 13 13 12 12 10 9 8 6 5 4 3 3 3 3 2 3 3 3 3 4 3 3 4 4 4 4 4 4 4 4 4 4 3 3 3 2 2 1 1 2
14 15 14 13 12 13 12 11 10 9 7 6 5 5 4 4 4 4 4 4 4 3 4 4 4 4 4 4 5 5 5 5 5 5 5 5 4 4 3 3 3 2 2
11 13 14 13 11 11 11 11 10 9 9 8 7 5 5 5 5 4 5 4 4 4 4 4 4 5 5 5 5 5 5 5 6 6 6 7 6 5 4 4 4 3 4
11 12 13 12 11 11 11 10 10 10 9 8 8 6 6 5 5 5 5 4 5 5 5 5 5 5 6 6 5 5 5 6 6 7 7 7 7 6 5 5 5 4 4
12 12 13 12 12 11 10 10 10 9 8 8 8 7 6 6 6 6 5 5 5 6 6 6 6 6 6 6 6 4 6 5 5 6 7 8 10 11 8 6 5 5 5
11 12 13 13 12 12 11 10 10 9 9 8 8 7 7 6 6 6 6 6 6 6 6 7 7 8 7 9 10 7 5 5 5 5 5 6 8 10 11 12 11 9 7
11 11 12 12 11 11 11 10 10 10 9 8 8 8 7 7 6 7 7 7 6 6 7 7 7 7 8 10 10 8 4 6 6 6 5 6 7 7 6 8 9 10 10
12 11 12 13 12 11 11 11 11 10 10 9 8 8 8 8 7 7 7 6 5 6 6 6 6 6 7 10 9 7 5 7 7 7 7 7 7 7 6 6 7 7 7
9 10 12 13 13 12 12 11 11 10 10 9 8 8 8 8 7 7 6 5 5 6 6 6 6 5 6 9 9 7 4 6 7 7 7 7 7 9 8 5 5 5 5
9 9 11 12 13 12 12 12 11 10 10 9 8 8 7 7 7 7 6 5 5 5 6 6 5 5 5 7 10 7 3 5 6 6 7 10 8 9 8 5 4 4 3
10 10 11 11 11 12 11 11 10 10 9 9 9 8 7 7 7 7 6 6 5 5 5 6 5 5 5 6 9 9 4 3 4 5 5 4 7 8 8 6 4 3 2
11 11 10 10 10 11 11 10 9 9 9 9 9 9 8 7 7 7 6 5 6 6 5 5 5 4 4 5 6 8 8 6 5 5 5 4 4 5 5 4 5 6 4
10 10 11 11 10 10 10 10 9 10 10 9 9 8 7 6 7 7 6 5 5 5 5 5 5 5 4 3 4 6 7 8 5 4 4 3 1 1 1 1 3 4 2
9 9 10 11 10 9 9 8 9 9 10 10 8 7 7 7 6 5 5 4 3 3 3 3 4 5 5 3 2 3 4 4 4 3 3 3 3 3 3 2 1 0 1
8 8 8 9 10 10 9 9 9 10 10 9 8 8 7 6 5 4 3 2 3 1 1 2 3 4 4 3 3 2 2 2 2 1 2 3 2 2 2 1 1 1 1
7 7 8 9 9 10 9 9 9 10 10 9 9 8 7 7 6 6 5 10 7 7 9 8 6 5 7 8 7 6 5 5 4 1 2 1 1 1 1 1 2 2 2
Wind_Direction
170 167 170 167 157 151 154 165 174 165 176 194 198 205 207 209 191 188 181 176 216 229 230 277 222 226 237 234 234 222 249 256 251 273 287 270 257 236 209 204 188 195 189
167 166 167 163 157 154 160 165 171 172 178 191 201 219 217 209 185 170 153 179 200 231 229 219 254 247 255 248 265 265 262 269 267 249 275 289 294 283 237 201 194 199 170
169 167 172 169 165 165 171 176 167 169 179 186 202 227 217 266 183 152 158 191 203 228 265 253 268 296 270 226 230 242 246 259 272 235 207 229 248 293 292 244 203 165 149
169 169 173 173 170 168 168 155 154 158 168 179 208 219 208 202 204 194 183 193 201 212 212 219 238 281 305 296 261 225 235 246 264 274 246 244 244 227 288 308 298 166 160
168 167 167 167 169 168 163 156 150 153 159 172 202 232 234 213 201 177 197 206 206 212 185 140 130 303 287 297 302 327 286 272 272 272 273 269 261 233 219 255 286 317 321
162 158 157 156 162 161 160 156 150 154 163 182 195 213 240 246 265 275 191 210 198 177 146 163 187 298 311 303 290 289 279 283 286 291 288 278 269 257 222 230 245 246 262
157 156 157 158 161 161 158 152 150 154 162 170 183 194 220 217 223 259 248 235 243 162 94 84 110 297 307 327 325 291 305 321 318 292 289 292 289 279 243 204 233 254 267
160 159 159 157 161 159 153 150 149 151 154 154 161 181 218 209 213 228 246 186 107 44 83 98 84 51 25 9 9 23 15 22 357 343 345 330 330 331 287 187 181 211 275
160 160 158 159 159 157 153 149 143 146 151 153 150 152 157 189 244 259 92 37 28 58 70 88 77 60 38 24 34 51 27 33 38 23 14 2 346 343 339 347 166 168 175
158 157 160 159 157 155 148 143 144 144 145 150 158 153 142 120 94 72 77 68 52 58 57 56 59 57 47 41 46 55 45 53 39 40 34 14 347 341 1 1 338 158 161
154 158 159 156 153 151 149 146 145 144 145 140 131 115 116 113 110 108 90 79 67 69 67 58 58 58 47 44 49 53 51 51 41 31 34 24 13 8 3 1 31 85 118
152 156 153 148 152 151 151 151 151 149 146 139 129 118 107 98 94 86 82 79 74 73 73 67 63 63 56 51 51 52 50 49 45 39 37 26 27 22 22 21 37 60 97
143 147 147 148 154 150 148 151 152 149 145 138 132 127 115 104 96 90 84 78 73 68 67 66 63 58 58 58 58 62 59 58 52 46 44 36 33 30 29 38 39 47 75
147 152 149 151 152 148 148 150 149 148 147 143 140 129 119 116 110 100 87 80 79 74 69 68 67 64 58 52 54 68 67 66 62 58 55 46 40 31 26 47 41 54 69
157 156 153 151 150 148 149 150 148 144 142 141 137 131 125 120 110 99 90 81 82 84 75 73 69 65 57 40 34 61 73 67 66 69 72 67 62 54 50 59 49 52 64
163 159 156 153 154 153 154 151 149 145 142 142 139 132 129 123 116 112 104 92 83 80 76 73 67 61 55 31 34 45 63 62 62 63 71 80 68 64 65 68 64 59 67
168 164 160 156 157 157 153 154 149 145 143 142 141 140 137 129 124 115 103 97 95 89 81 78 78 72 47 33 32 31 66 71 64 60 53 59 60 58 60 69 71 62 61
170 164 162 158 158 156 153 151 149 148 144 144 142 140 135 129 122 116 111 107 103 96 89 84 86 81 50 32 28 20 85 80 70 63 60 62 51 44 44 71 74 69 59
159 160 161 158 157 158 155 151 150 148 146 146 141 137 134 131 130 124 120 118 113 109 104 97 92 84 51 26 22 17 99 92 82 74 61 60 56 31 41 70 81 86 83
146 151 152 148 152 153 151 152 153 151 152 148 142 136 137 140 138 134 131 127 124 121 114 105 98 91 68 34 27 17 92 108 106 96 79 61 52 38 42 60 64 70 66
140 144 146 144 146 147 149 154 153 153 150 143 140 137 140 140 138 135 135 140 136 123 115 114 108 94 79 62 43 35 43 79 99 101 92 65 47 42 37 41 51 41 4
141 144 141 139 141 146 150 153 152 148 143 142 143 142 146 150 144 141 142 143 140 139 141 139 132 116 96 70 63 54 51 58 81 89 96 96 68 45 29 32 10 357 356
139 142 142 141 144 148 151 154 148 145 146 147 147 147 149 142 145 151 152 156 166 168 167 164 152 138 126 105 87 81 73 73 81 89 109 119 124 349 313 314 337 349 358
136 138 145 148 149 150 151 148 143 144 149 149 148 150 151 147 146 153 162 165 178 178 168 159 148 138 138 134 129 135 131 125 123 132 161 191 231 265 288 284 267 126 25
139 143 149 152 153 151 150 151 148 149 153 154 155 157 157 153 137 118 71 100 67 63 139 138 134 148 142 122 99 100 93 99 97 168 208 198 194 204 205 185 124 92 79
139 145 151 155 155 154 153 155 156 159 159 162 167 169 166 160 154 139 103 52 65 77 80 77 91 97 114 126 101 82 67 59 54 43 242 213 217 189 147 126 118 97 59
Height
1536 1539 1542 1544 1545 1547 1548 1549 1550 1551 1552 1553 1553 1554 1555 1556 1556 1556 1556 1556 1556 1557 1557 1558 1558 1558 1559 1560 1561 1561 1561 1562 1562 1562 1562 1562 1561 1561 1562 1563 1563 1564 1564
1533 1537 1540 1542 1544 1545 1547 1548 1549 1550 1551 1552 1553 1553 1554 1555 1555 1555 1555 1555 1556 1556 1557 1556 1557 1557 1558 1558 1558 1559 1560 1560 1561 1561 1560 1560 1561 1560 1561 1561 1561 1561 1562
1530 1534 1538 1540 1542 1544 1545 1547 1548 1549 1550 1551 1552 1553 1553 1554 1554 1554 1554 1554 1555 1555 1555 1555 1556 1556 1556 1557 1557 1557 1558 1558 1559 1559 1560 1559 1558 1558 1559 1559 1559 1560 1560
1527 1531 1535 1538 1540 1542 1544 1545 1546 1547 1548 1549 1550 1552 1552 1552 1553 1553 1554 1554 1554 1554 1554 1554 1554 1555 1555 1555 1555 1556 1556 1556 1556 1557 1557 1558 1557 1557 1557 1557 1558 1558 1558
1524 1528 1532 1536 1539 1541 1543 1544 1545 1546 1547 1548 1549 1550 1551 1551 1552 1552 1552 1553 1553 1553 1553 1553 1553 1553 1554 1554 1554 1554 1554 1554 1554 1554 1554 1555 1555 1555 1555 1555 1555 1556 1555
1521 1526 1530 1534 1537 1540 1541 1542 1543 1544 1545 1546 1547 1548 1549 1550 1551 1551 1551 1551 1552 1552 1552 1552 1552 1552 1552 1552 1552 1552 1552 1552 1552 1552 1552 1552 1553 1553 1553 1553 1553 1553 1553
1519 1524 1529 1532 1536 1538 1540 1541 1542 1543 1544 1545 1546 1547 1548 1548 1549 1550 1550 1551 1551 1551 1551 1551 1551 1551 1551 1551 1551 1551 1551 1550 1550 1550 1550 1550 1550 1550 1550 1550 1550 1551 1551
1517 1522 1527 1530 1534 1537 1538 1540 1541 1542 1544 1544 1545 1546 1547 1547 1547 1548 1549 1549 1550 1550 1550 1550 1549 1549 1549 1549 1549 1549 1549 1549 1548 1548 1548 1548 1548 1548 1548 1548 1548 1548 1549
1515 1520 1525 1529 1532 1535 1537 1539 1539 1541 1543 1544 1544 1545 1545 1546 1546 1547 1547 1548 1548 1548 1548 1548 1548 1548 1548 1548 1548 1547 1547 1547 1546 1546 1546 1546 1546 1546 1546 1546 1546 1547 1547
1514 1520 1524 1528 1530 1533 1536 1538 1539 1541 1542 1543 1544 1545 1545 1545 1545 1545 1546 1547 1547 1547 1547 1547 1547 1547 1547 1547 1546 1546 1545 1545 1545 1545 1544 1544 1544 1545 1544 1544 1544 1545 1545
1511 1517 1522 1526 1529 1532 1535 1537 1539 1541 1542 1543 1544 1545 1545 1545 1545 1545 1546 1546 1547 1547 1547 1547 1546 1546 1546 1546 1545 1545 1544 1544 1544 1543 1543 1543 1543 1543 1543 1543 1543 1543 1544
1509 1515 1520 1524 1528 1531 1534 1536 1538 1540 1541 1543 1544 1544 1545 1545 1545 1546 1546 1546 1546 1546 1546 1546 1546 1546 1546 1545 1545 1544 1544 1543 1543 1542 1542 1542 1541 1541 1541 1542 1542 1542 1543
1510 1514 1518 1522 1527 1530 1533 1536 1538 1540 1541 1543 1544 1544 1545 1545 1546 1546 1546 1546 1547 1547 1546 1546 1546 1546 1546 1545 1544 1544 1544 1543 1542 1542 1541 1541 1541 1541 1541 1541 1541 1542 1542
1510 1514 1517 1521 1525 1529 1532 1535 1537 1539 1541 1542 1543 1544 1545 1546 1546 1547 1547 1547 1547 1547 1546 1546 1546 1546 1546 1545 1545 1544 1544 1543 1543 1542 1542 1541 1541 1541 1541 1541 1541 1542 1542
1509 1513 1517 1521 1525 1528 1531 1534 1536 1538 1540 1542 1543 1544 1545 1546 1546 1547 1547 1547 1547 1547 1547 1547 1547 1546 1546 1545 1545 1545 1544 1543 1543 1543 1542 1542 1542 1542 1542 1542 1542 1542 1543
1509 1513 1516 1520 1523 1527 1530 1533 1535 1537 1539 1541 1543 1544 1545 1545 1546 1546 1547 1547 1548 1548 1547 1547 1547 1546 1546 1546 1546 1545 1545 1544 1544 1544 1543 1543 1542 1542 1542 1543 1543 1543 1544
1508 1512 1515 1518 1522 1525 1528 1531 1534 1536 1539 1540 1542 1543 1544 1545 1546 1547 1547 1547 1548 1548 1548 1548 1547 1547 1547 1547 1546 1546 1545 1545 1545 1545 1544 1544 1543 1543 1544 1543 1544 1544 1545
1506 1510 1513 1517 1520 1524 1527 1530 1533 1535 1537 1539 1541 1542 1544 1545 1545 1546 1546 1547 1548 1548 1548 1548 1548 1548 1547 1547 1547 1547 1546 1546 1546 1545 1545 1545 1545 1545 1545 1545 1545 1545 1546
1504 1507 1511 1515 1519 1522 1526 1529 1532 1534 1536 1538 1540 1541 1543 1544 1545 1546 1546 1547 1548 1548 1548 1548 1548 1548 1548 1547 1547 1547 1547 1547 1547 1547 1546 1546 1546 1546 1546 1546 1546 1547 1547
1504 1506 1510 1513 1517 1521 1524 1527 1530 1533 1535 1537 1539 1540 1542 1543 1545 1545 1546 1547 1548 1548 1549 1549 1549 1549 1548 1548 1548 1548 1548 1548 1548 1548 1547 1547 1547 1547 1548 1548 1548 1548 1549
1503 1506 1510 1513 1516 1519 1523 1526 1529 1532 1535 1537 1538 1540 1541 1543 1544 1545 1546 1547 1548 1548 1549 1549 1549 1549 1549 1549 1549 1549 1549 1549 1549 1549 1549 1549 1549 1549 1549 1549 1549 1550 1550
1504 1506 1509 1512 1515 1519 1522 1525 1528 1531 1533 1536 1537 1539 1540 1542 1543 1544 1545 1546 1547 1548 1549 1549 1549 1549 1549 1549 1549 1549 1550 1550 1550 1550 1550 1550 1550 1550 1551 1551 1551 1551 1551
1504 1506 1509 1512 1515 1518 1521 1524 1527 1529 1531 1534 1535 1537 1539 1540 1542 1543 1544 1546 1547 1548 1549 1549 1549 1549 1549 1550 1550 1550 1550 1550 1551 1551 1551 1552 1552 1552 1552 1552 1552 1552 1552
1504 1506 1509 1511 1514 1517 1520 1523 1525 1528 1530 1532 1534 1536 1538 1539 1540 1542 1543 1545 1546 1547 1548 1549 1549 1549 1549 1549 1550 1550 1550 1551 1551 1552 1552 1553 1553 1553 1553 1553 1554 1553 1553
1504 1506 1508 1511 1513 1516 1519 1521 1524 1526 1528 1530 1532 1534 1536 1537 1539 1540 1542 1543 1544 1546 1547 1547 1548 1548 1548 1548 1549 1549 1550 1550 1551 1552 1552 1553 1553 1553 1553 1554 1554 1554 1553
1504 1506 1508 1510 1512 1515 1517 1520 1522 1525 1527 1529 1531 1533 1534 1536 1537 1538 1540 1541 1543 1544 1545 1546 1546 1546 1547 1547 1548 1549 1549 1550 1551 1552 1552 1552 1553 1553 1554 1554 1554 1553 1553